User: anonymous   Login
Location: Baix
(44.7118°N, 4.7648°E)
Time: 19:57:37
(UTC+00:00)
Language:

Meteor 1-15 Rocket - Orbit

View from above orbital plane
View from above orbital plane
View from above satellite
View from above satellite

Ground track
Ground track

The orbit data is extracted from the following two-line orbital elements,

1  6660U 73034B   20304.24426977 +.00000005 +00000-0 -41337-5 0  9994
2  6660 081.2304 253.8134 0046159 230.5533 129.1547 14.05851519431095
Epoch (UTC): 30 October 2020 05:51:44
Eccentricity: 0.0046159
inclination: 81.2304°
perigee height: 840 km
apogee height: 907 km
right ascension of ascending node: 253.8134°
argument of perigee: 230.5533°
revolutions per day: 14.05851519
mean anomaly at epoch: 129.1547°
orbit number at epoch: 43109

The dashed part of the orbit path shows where the satellite is in the earth's shadow,  

DLR